| time (UTC) | temp F | wind direction | speed MPH | gust MPH | rain 1hr in | rain 24hr in | rain mn in | humidity % | barometer mb |
| 20260505022942 | 69 | 221 | 1.0 | 2.0 | 0.00 | 0.00 | 0.00 | 72 | 1002.4 |
| 20260505022442 | 69 | 221 | 1.0 | 2.0 | 0.00 | 0.00 | 0.00 | 71 | 1002.3 |
| 20260505021941 | 70 | 221 | 1.0 | 2.0 | 0.00 | 0.00 | 0.00 | 70 | 1002.4 |
| 20260505021440 | 71 | 221 | 0.0 | 2.0 | 0.00 | 0.00 | 0.00 | 69 | 1002.3 |
| 20260505020940 | 71 | 221 | 1.0 | 2.0 | 0.00 | 0.00 | 0.00 | 68 | 1002.2 |
| 20260505020437 | 72 | 221 | 1.0 | 3.0 | 0.00 | 0.00 | 0.00 | 68 | 1002.2 |
| 20260505015938 | 72 | 221 | 1.0 | 3.0 | 0.00 | 0.00 | 0.00 | 67 | 1002.1 |
| 20260505015439 | 73 | 221 | 1.0 | 5.0 | 0.00 | 0.00 | 0.00 | 66 | 1002.1 |
| 20260505014937 | 73 | 221 | 1.0 | 5.0 | 0.00 | 0.00 | 0.00 | 66 | 1002.0 |
| 20260505013934 | 74 | 190 | 3.0 | 6.0 | 0.00 | 0.00 | 0.00 | 64 | 1001.9 |
| 20260505012934 | 75 | 231 | 2.0 | 3.0 | 0.00 | 0.00 | 0.00 | 63 | 1001.8 |
| 20260505012432 | 76 | 231 | 1.0 | 5.0 | 0.00 | 0.00 | 0.00 | 63 | 1001.7 |
| 20260505011932 | 76 | 241 | 2.0 | 5.0 | 0.00 | 0.00 | 0.00 | 62 | 1001.5 |
| 20260505011432 | 76 | 227 | 1.0 | 3.0 | 0.00 | 0.00 | 0.00 | 61 | 1001.5 |
| 20260505010431 | 77 | 223 | 1.0 | 6.0 | 0.00 | 0.00 | 0.00 | 59 | 1001.3 |
| 20260505005931 | 78 | 228 | 2.0 | 6.0 | 0.00 | 0.00 | 0.00 | 57 | 1001.3 |
| 20260505005431 | 78 | 192 | 2.0 | 5.0 | 0.00 | 0.00 | 0.00 | 58 | 1001.3 |
| 20260505003931 | 78 | 214 | 4.0 | 9.0 | 0.00 | 0.00 | 0.00 | 55 | 1001.2 |
| 20260505003432 | 79 | 231 | 4.0 | 13.0 | 0.00 | 0.00 | 0.00 | 55 | 1001.2 |
| 20260505002431 | 79 | 209 | 6.0 | 16.0 | 0.00 | 0.00 | 0.00 | 54 | 1001.1 |
| 20260505001931 | 79 | 223 | 7.0 | 17.0 | 0.00 | 0.00 | 0.00 | 54 | 1000.9 |
| 20260505001431 | 80 | 206 | 8.0 | 17.0 | 0.00 | 0.00 | 0.00 | 55 | 1000.9 |
| 20260505000932 | 80 | 190 | 4.0 | 7.0 | 0.00 | 0.00 | 0.00 | 54 | 1001.0 |
| 20260504235930 | 80 | 219 | 4.0 | 9.0 | 0.00 | 0.00 | 0.00 | 53 | 1001.0 |
| 20260504234930 | 81 | 197 | 4.0 | 9.0 | 0.00 | 0.00 | 0.00 | 53 | 1001.1 |
| 20260504234429 | 81 | 202 | 2.0 | 6.0 | 0.00 | 0.00 | 0.00 | 54 | 1001.1 |
| 20260504233929 | 81 | 214 | 2.0 | 6.0 | 0.00 | 0.00 | 0.00 | 51 | 1001.1 |
| 20260504233428 | 82 | 196 | 4.0 | 11.0 | 0.00 | 0.00 | 0.00 | 50 | 1001.1 |
| 20260504232925 | 82 | 244 | 4.0 | 11.0 | 0.00 | 0.00 | 0.00 | 50 | 1001.1 |
| 20260504232426 | 82 | 252 | 4.0 | 10.0 | 0.00 | 0.00 | 0.00 | 50 | 1001.0 |
| 20260504231926 | 82 | 217 | 5.0 | 10.0 | 0.00 | 0.00 | 0.00 | 49 | 1001.1 |
| 20260504231426 | 83 | 199 | 5.0 | 9.0 | 0.00 | 0.00 | 0.00 | 48 | 1001.0 |
| 20260504230425 | 83 | 196 | 4.0 | 9.0 | 0.00 | 0.00 | 0.00 | 50 | 1001.1 |
| 20260504225922 | 83 | 175 | 4.0 | 7.0 | 0.00 | 0.00 | 0.00 | 50 | 1001.0 |
| 20260504225422 | 83 | 223 | 3.0 | 7.0 | 0.00 | 0.00 | 0.00 | 52 | 1001.0 |
| 20260504224922 | 83 | 206 | 3.0 | 7.0 | 0.00 | 0.00 | 0.00 | 48 | 1001.1 |
| 20260504224420 | 82 | 233 | 2.0 | 7.0 | 0.00 | 0.00 | 0.00 | 50 | 1001.1 |
| 20260504223920 | 82 | 269 | 3.0 | 9.0 | 0.00 | 0.00 | 0.00 | 49 | 1001.2 |
| 20260504222920 | 82 | 241 | 3.0 | 7.0 | 0.00 | 0.00 | 0.00 | 48 | 1001.0 |
| 20260504222413 | 82 | 186 | 4.0 | 9.0 | 0.00 | 0.00 | 0.00 | 47 | 1001.1 |
| 20260504221913 | 82 | 207 | 3.0 | 9.0 | 0.00 | 0.00 | 0.00 | 49 | 1001.1 |
| 20260504221411 | 82 | 199 | 4.0 | 10.0 | 0.00 | 0.00 | 0.00 | 46 | 1001.1 |
| 20260504220912 | 82 | 197 | 5.0 | 10.0 | 0.00 | 0.00 | 0.00 | 47 | 1001.2 |
| 20260504220411 | 82 | 258 | 3.0 | 10.0 | 0.00 | 0.00 | 0.00 | 52 | 1001.2 |
| 20260504215409 | 82 | 266 | 3.0 | 7.0 | 0.00 | 0.00 | 0.00 | 50 | 1001.2 |
| 20260504213908 | 81 | 234 | 5.0 | 9.0 | 0.00 | 0.00 | 0.00 | 46 | 1001.4 |
| 20260504213408 | 81 | 209 | 4.0 | 10.0 | 0.00 | 0.00 | 0.00 | 48 | 1001.4 |
| 20260504212905 | 82 | 219 | 6.0 | 14.0 | 0.00 | 0.00 | 0.00 | 46 | 1001.5 |
| 20260504212405 | 82 | 248 | 8.0 | 14.0 | 0.00 | 0.00 | 0.00 | 45 | 1001.6 |
| 20260504211903 | 82 | 309 | 6.0 | 10.0 | 0.00 | 0.00 | 0.00 | 46 | 1001.6 |
| 20260504210903 | 82 | 186 | 5.0 | 13.0 | 0.00 | 0.00 | 0.00 | 47 | 1001.7 |
| 20260504210402 | 82 | 228 | 7.0 | 13.0 | 0.00 | 0.00 | 0.00 | 46 | 1001.7 |
| 20260504205901 | 82 | 234 | 9.0 | 13.0 | 0.00 | 0.00 | 0.00 | 44 | 1001.7 |
| 20260504205402 | 82 | 228 | 5.0 | 13.0 | 0.00 | 0.00 | 0.00 | 46 | 1001.6 |
| 20260504204902 | 83 | 220 | 6.0 | 13.0 | 0.00 | 0.00 | 0.00 | 47 | 1001.9 |
| 20260504204401 | 83 | 234 | 6.0 | 15.0 | 0.00 | 0.00 | 0.00 | 48 | 1001.9 |
| 20260504203901 | 82 | 227 | 9.0 | 15.0 | 0.00 | 0.00 | 0.00 | 47 | 1001.9 |
| 20260504203401 | 82 | 212 | 7.0 | 15.0 | 0.00 | 0.00 | 0.00 | 47 | 1002.0 |
| 20260504202901 | 82 | 244 | 7.0 | 13.0 | 0.00 | 0.00 | 0.00 | 45 | 1001.9 |
| 20260504202401 | 82 | 220 | 7.0 | 13.0 | 0.00 | 0.00 | 0.00 | 46 | 1002.1 |
| 20260504201901 | 81 | 199 | 8.0 | 14.0 | 0.00 | 0.00 | 0.00 | 45 | 1002.2 |
| 20260504201400 | 81 | 214 | 6.0 | 16.0 | 0.00 | 0.00 | 0.00 | 47 | 1002.3 |
| 20260504200900 | 82 | 230 | 7.0 | 16.0 | 0.00 | 0.00 | 0.00 | 47 | 1002.2 |
| 20260504195401 | 82 | 247 | 10.0 | 15.0 | 0.00 | 0.00 | 0.00 | 46 | 1002.2 |
| 20260504194900 | 83 | 172 | 7.0 | 15.0 | 0.00 | 0.00 | 0.00 | 46 | 1002.2 |
| 20260504193900 | 83 | 240 | 6.0 | 12.0 | 0.00 | 0.00 | 0.00 | 46 | 1002.1 |
| 20260504193359 | 83 | 241 | 4.0 | 14.0 | 0.00 | 0.00 | 0.00 | 45 | 1002.0 |
| 20260504192900 | 83 | 227 | 6.0 | 14.0 | 0.00 | 0.00 | 0.00 | 48 | 1002.1 |
| 20260504192359 | 83 | 266 | 6.0 | 17.0 | 0.00 | 0.00 | 0.00 | 45 | 1002.1 |
| 20260504191859 | 83 | 217 | 10.0 | 17.0 | 0.00 | 0.00 | 0.00 | 44 | 1002.1 |
| 20260504191359 | 84 | 252 | 7.0 | 18.0 | 0.00 | 0.00 | 0.00 | 45 | 1002.1 |
| 20260504190900 | 84 | 151 | 10.0 | 18.0 | 0.00 | 0.00 | 0.00 | 45 | 1002.3 |
| 20260504190359 | 84 | 224 | 6.0 | 17.0 | 0.00 | 0.00 | 0.00 | 49 | 1002.3 |
| 20260504185859 | 84 | 176 | 7.0 | 14.0 | 0.00 | 0.00 | 0.00 | 45 | 1002.4 |
| 20260504184858 | 83 | 183 | 8.0 | 15.0 | 0.00 | 0.00 | 0.00 | 46 | 1002.3 |
| 20260504183858 | 82 | 227 | 7.0 | 16.0 | 0.00 | 0.00 | 0.00 | 49 | 1002.5 |
| 20260504183358 | 82 | 213 | 5.0 | 15.0 | 0.00 | 0.00 | 0.00 | 46 | 1002.4 |
| 20260504182859 | 82 | 199 | 5.0 | 15.0 | 0.00 | 0.00 | 0.00 | 50 | 1002.5 |
| 20260504182359 | 81 | 235 | 4.0 | 12.0 | 0.00 | 0.00 | 0.00 | 54 | 1002.6 |
| 20260504181858 | 81 | 137 | 6.0 | 17.0 | 0.00 | 0.00 | 0.00 | 50 | 1002.6 |
| 20260504180856 | 80 | 238 | 6.0 | 14.0 | 0.00 | 0.00 | 0.00 | 50 | 1002.6 |
| 20260504180358 | 80 | 230 | 7.0 | 14.0 | 0.00 | 0.00 | 0.00 | 49 | 1002.7 |
| 20260504175858 | 80 | 258 | 8.0 | 14.0 | 0.00 | 0.00 | 0.00 | 48 | 1002.6 |
| 20260504175358 | 80 | 195 | 8.0 | 17.0 | 0.00 | 0.00 | 0.00 | 52 | 1002.7 |
| 20260504174858 | 79 | 197 | 10.0 | 17.0 | 0.00 | 0.00 | 0.00 | 52 | 1002.8 |
| 20260504174357 | 79 | 274 | 8.0 | 15.0 | 0.00 | 0.00 | 0.00 | 51 | 1002.9 |
| 20260504173857 | 78 | 254 | 8.0 | 15.0 | 0.00 | 0.00 | 0.00 | 56 | 1002.8 |
| 20260504173357 | 78 | 237 | 5.0 | 16.0 | 0.00 | 0.00 | 0.00 | 55 | 1002.8 |
| 20260504172856 | 77 | 207 | 9.0 | 16.0 | 0.00 | 0.00 | 0.00 | 54 | 1003.2 |
| 20260504171857 | 76 | 221 | 5.0 | 17.0 | 0.00 | 0.00 | 0.00 | 54 | 1003.0 |
| 20260504170856 | 76 | 178 | 6.0 | 15.0 | 0.00 | 0.00 | 0.00 | 53 | 1003.0 |
| 20260504170356 | 76 | 199 | 6.0 | 14.0 | 0.00 | 0.00 | 0.00 | 52 | 1003.0 |
| 20260504160355 | 75 | 219 | 8.0 | 16.0 | 0.00 | 0.00 | 0.00 | 54 | 1003.3 |
| 20260504150854 | 71 | 219 | 7.0 | 21.0 | 0.00 | 0.00 | 0.00 | 58 | 1003.5 |
| 20260504140852 | 67 | 209 | 9.0 | 20.0 | 0.00 | 0.00 | 0.00 | 60 | 1003.7 |
| 20260504140352 | 67 | 164 | 8.0 | 20.0 | 0.00 | 0.00 | 0.00 | 59 | 1003.3 |
| 20260504130352 | 65 | 220 | 10.0 | 18.0 | 0.00 | 0.00 | 0.00 | 61 | 1003.2 |
| 20260504110348 | 64 | 231 | 8.0 | 12.0 | 0.00 | 0.00 | 0.00 | 57 | 1003.5 |
| 20260504081844 | 68 | 199 | 8.0 | 22.0 | 0.00 | 0.00 | 0.00 | 51 | 1004.6 |
| 20260504080843 | 68 | 223 | 8.0 | 19.0 | 0.00 | 0.00 | 0.00 | 50 | 1004.7 |
| 20260504080344 | 68 | 164 | 9.0 | 19.0 | 0.00 | 0.00 | 0.00 | 50 | 1004.7 |
| 20260504070342 | 68 | 212 | 9.0 | 17.0 | 0.00 | 0.00 | 0.00 | 51 | 1005.4 |
| 20260504050339 | 65 | 206 | 4.0 | 9.0 | 0.00 | 0.00 | 0.00 | 56 | 1006.1 |
| 20260504045841 | 65 | 200 | 4.0 | 10.0 | 0.00 | 0.00 | 0.00 | 55 | 1006.1 |
| 20260504044840 | 65 | 213 | 5.0 | 12.0 | 0.00 | 0.00 | 0.00 | 56 | 1006.2 |
| 20260504044339 | 64 | 179 | 5.0 | 12.0 | 0.00 | 0.00 | 0.00 | 57 | 1006.2 |
| 20260504043339 | 63 | 196 | 4.0 | 11.0 | 0.00 | 0.00 | 0.00 | 59 | 1006.2 |
| 20260504042838 | 63 | 213 | 5.0 | 11.0 | 0.00 | 0.00 | 0.00 | 61 | 1006.3 |
| 20260504042339 | 62 | 230 | 5.0 | 10.0 | 0.00 | 0.00 | 0.00 | 62 | 1006.3 |
| 20260504041838 | 62 | 207 | 4.0 | 10.0 | 0.00 | 0.00 | 0.00 | 62 | 1006.3 |
| 20260504041338 | 61 | 214 | 4.0 | 9.0 | 0.00 | 0.00 | 0.00 | 64 | 1006.3 |
| 20260504040839 | 61 | 196 | 3.0 | 6.0 | 0.00 | 0.00 | 0.00 | 66 | 1006.4 |
| 20260504035338 | 61 | 173 | 2.0 | 4.0 | 0.00 | 0.00 | 0.00 | 66 | 1006.5 |
| 20260504034337 | 61 | 178 | 1.0 | 7.0 | 0.00 | 0.00 | 0.00 | 65 | 1006.6 |
| 20260504033837 | 62 | 178 | 3.0 | 7.0 | 0.00 | 0.00 | 0.00 | 64 | 1006.6 |
| 20260504033337 | 62 | 182 | 2.0 | 4.0 | 0.00 | 0.00 | 0.00 | 64 | 1006.6 |
| 20260504032838 | 62 | 166 | 1.0 | 4.0 | 0.00 | 0.00 | 0.00 | 64 | 1006.6 |
| 20260504032337 | 62 | 179 | 3.0 | 4.0 | 0.00 | 0.00 | 0.00 | 64 | 1006.5 |
| 20260504031837 | 62 | 161 | 2.0 | 5.0 | 0.00 | 0.00 | 0.00 | 64 | 1006.5 |
| 20260504031337 | 63 | 175 | 2.0 | 7.0 | 0.00 | 0.00 | 0.00 | 63 | 1006.7 |
| 20260504030837 | 63 | 189 | 3.0 | 7.0 | 0.00 | 0.00 | 0.00 | 64 | 1006.6 |
| 20260504030336 | 63 | 175 | 2.0 | 5.0 | 0.00 | 0.00 | 0.00 | 62 | 1006.6 |
| 20260504025836 | 64 | 182 | 2.0 | 4.0 | 0.00 | 0.00 | 0.00 | 62 | 1006.6 |
| 20260504024836 | 65 | 158 | 2.0 | 4.0 | 0.00 | 0.00 | 0.00 | 61 | 1006.5 |
| 20260504024336 | 65 | 172 | 2.0 | 4.0 | 0.00 | 0.00 | 0.00 | 60 | 1006.6 |
| 20260504023837 | 65 | 216 | 2.0 | 3.0 | 0.00 | 0.00 | 0.00 | 60 | 1006.5 |
| 20260504023336 | 66 | 176 | 1.0 | 3.0 | 0.00 | 0.00 | 0.00 | 59 | 1006.5 |